[[{"header":{"parameterUnit":"m.s-1","parameterCategory":1,"la1":30.2991,"la2":30.254,"lo1":-89.0895,"lo2":-89.0444,"dy":0.0017,"dx":0.0017,"nx":28,"ny":28,"refTime":"2025-06-23T03:00:00:Z","depth":0,"parameterNumber":2,"parameterNumberName":"U-component_of_WINDS"},"data":[0,0,0,0,0,0,0,0,0,0,0,0,0,0,0,0,0,0,0,0,0,0,0,0,0,0,0,0,0,0,0,0,0,0,0,0,0,0,0,0,0,0,0,0,0,0,0,0,0,0,0,0,0,0,0,0,0,0,-0.8928,-0.8928,0,-0.8988,-0.8989,-0.899,-0.8977,-0.8976,-0.8975,-0.8974,-0.9038,-0.9041,-0.9044,0,0,0,0,0,0,0,0,0,0,0,0,0,-0.8804,-0.8806,-0.8928,-0.8929,-0.8929,-0.8988,-0.8989,-0.899,-0.8977,-0.8976,-0.8974,-0.8973,-0.9037,-0.904,-0.9044,0,0,0,0,0,0,0,0,0,0,0,0,0,-0.8861,-0.8807,-0.8928,-0.893,-0.8931,-0.8988,-0.8989,-0.899,-0.8977,-0.8976,-0.8974,-0.8972,-0.9036,-0.904,-0.9044,-0.9104,0,0,-0.9057,-0.9059,0,0,0,0,0,0,0,0,-0.8857,-0.8865,-0.8929,-0.893,-0.8931,-0.8973,-0.8969,-0.9028,-0.8978,-0.896,-0.8974,-0.8972,-0.9018,-0.9024,-0.9039,-0.9107,-0.9109,-0.9057,-0.906,-0.9062,-0.9063,0,0,0,0,0,0,0,-0.8854,-0.8863,-0.8952,-0.893,-0.8931,-0.8929,-0.8935,-0.898,-0.8998,-0.8961,-0.896,-0.8968,-0.9018,-0.9035,-0.904,-0.911,-0.9057,-0.9061,-0.9063,-0.9065,-0.9231,-0.9233,0,0,0,0,0,0,-0.8848,-0.8859,-0.895,-0.8954,-0.8889,-0.8933,-0.8939,-0.8961,-0.8997,-0.9001,-0.8969,-0.8967,-0.9029,-0.9035,-0.9042,-0.9115,-0.9062,-0.9065,-0.9068,-0.9229,-0.9231,-0.9234,0,0,0,0,0,0,-0.8846,-0.8857,-0.8947,-0.8906,-0.8918,-0.8936,-0.8961,-0.8964,-0.898,-0.9003,-0.9006,-0.8982,-0.9027,-0.9037,-0.9089,-0.9117,-0.9067,-0.9071,-0.9227,-0.923,-0.9233,-0.926,0,0,0,0,0,0,-0.8842,-0.8856,-0.8878,-0.8907,-0.892,-0.8992,-0.8963,-0.8966,-0.8987,-0.8984,-0.9017,-0.902,-0.9027,-0.9082,-0.9093,-0.9122,-0.9074,-0.9224,-0.9228,-0.9232,-0.9257,-0.9264,-0.9269,0,0,0,0,0,-0.8838,-0.8884,-0.8879,-0.889,-0.8948,-0.8993,-0.9001,-0.9007,-0.8989,-0.9012,-0.9027,-0.9019,-0.9112,-0.9088,-0.9099,-0.913,-0.9223,-0.9227,-0.9231,-0.9254,-0.9262,-0.9269,0,0,0,0,0,0,-0.8858,-0.8887,-0.8883,-0.8939,-0.8964,-0.8991,-0.902,-0.9015,-0.9047,-0.9043,-0.905,-0.9057,-0.911,-0.9125,-0.9098,-0.919,-0.9165,-0.9172,-0.9178,-0.9186,-0.9192,-0.9188,-0.9078,0,0,0,0,0,-0.8869,-0.8903,-0.8927,-0.8974,-0.8987,-0.9001,-0.9022,-0.9024,-0.905,-0.9061,-0.908,-0.9106,-0.9141,-0.9165,-0.9198,-0.9259,-0.9266,-0.9286,-0.9292,-0.9297,-0.9303,-0.9337,-0.9346,-0.9248,-0.9248,-0.9248,0,0,-0.8892,-0.8912,-0.8933,-0.8979,-0.8998,-0.9034,-0.901,-0.9049,-0.9076,-0.9067,-0.9117,-0.9132,-0.9162,-0.9219,-0.9245,-0.9233,-0.9332,-0.9302,-0.9306,-0.931,-0.9342,-0.9352,-0.936,-0.9251,-0.925,-0.925,0,0,-0.8953,-0.8971,-0.9013,-0.9033,-0.9062,-0.9071,-0.9082,-0.911,-0.9119,-0.9169,-0.9164,-0.9196,-0.9256,-0.9278,-0.9297,-0.9367,-0.9361,-0.9377,-0.9411,-0.9444,-0.9451,-0.9458,-0.9484,-0.9493,-0.9383,-0.9383,-0.9383,0,-0.8978,-0.9031,-0.9035,-0.9074,-0.9095,-0.9088,-0.9131,-0.915,-0.9189,-0.9204,-0.919,-0.9266,-0.9286,-0.9348,-0.9365,-0.938,-0.9393,-0.9374,-0.945,-0.9457,-0.9463,-0.9488,-0.9497,-0.9385,-0.9385,-0.9385,-0.9385,0,-0.9061,-0.9098,-0.9128,-0.9165,-0.9189,-0.923,-0.9242,-0.9266,-0.9266,-0.9277,-0.9329,-0.9352,-0.9391,-0.9406,-0.9407,-0.9468,-0.946,-0.9448,-0.9423,-0.9474,-0.9498,-0.9507,-0.9388,-0.9387,-0.9387,-0.9386,0,0,-0.9136,-0.9175,-0.9186,-0.9204,-0.9236,-0.9265,-0.9306,-0.9343,-0.9363,-0.9391,-0.9426,-0.9477,-0.9466,-0.9488,-0.9492,-0.952,-0.9575,-0.9505,-0.9506,-0.9518,-0.9645,-0.9654,-0.9665,-0.9571,-0.9573,-0.9574,-0.9643,0,-0.92,-0.9272,-0.9277,-0.9342,-0.9376,-0.937,-0.9406,-0.943,-0.9442,-0.9473,-0.9486,-0.9523,-0.9505,-0.9518,-0.9546,-0.9562,-0.96,-0.9557,-0.9605,-0.9606,-0.9598,-0.9677,-0.9687,-0.9751,-0.9652,-0.9653,-0.9654,0,-0.9284,-0.9314,-0.9382,-0.941,-0.9424,-0.9456,-0.9491,-0.9521,-0.9549,-0.9555,-0.9579,-0.9579,-0.9622,-0.9595,-0.9655,-0.9626,-0.9646,-0.9656,-0.9659,-0.9664,-0.9634,-0.9685,-0.9771,-0.9781,-0.9668,-0.9667,-0.9666,0,-0.9334,-0.939,-0.9438,-0.9453,-0.9486,-0.9509,-0.9524,-0.955,-0.9572,-0.9603,-0.9617,-0.9653,-0.9672,-0.97,-0.9709,-0.9689,-0.977,-0.9743,-0.9777,-0.9777,-0.9795,-0.9794,-0.9886,-0.9807,-0.9807,-0.9806,-0.9806,0,-0.9405,-0.9447,-0.9461,-0.9491,-0.9538,-0.9544,-0.9591,-0.9605,-0.9628,-0.9661,-0.9658,-0.9689,-0.9699,-0.9733,-0.974,-0.979,-0.9798,-0.9806,-0.9807,-0.9807,-0.9806,-0.982,-0.9816,-0.9809,-0.9808,-0.9808,-0.9807,0,-0.9468,-0.9479,-0.9531,-0.9558,-0.9566,-0.96,-0.9623,-0.9653,-0.9663,-0.9706,-0.9716,-0.9733,-0.9773,-0.9784,-0.9832,-0.9837,-0.9895,-0.9892,-0.9886,-0.9886,-0.9919,-0.9916,-1.0025,-1.004,-0.995,-0.995,-0.9951,0,-0.9513,-0.9546,-0.9576,-0.9597,-0.9613,-0.9648,-0.967,-0.9677,-0.9701,-0.9735,-0.976,-0.9799,-0.983,-0.9893,-0.9911,-0.9947,-0.9946,-0.9982,-0.9952,-0.995,-0.9948,-0.9946,-0.995,-0.9987,-0.9988,-0.9989,-0.999,0,-0.9593,-0.9596,-0.9628,-0.9662,-0.9689,-0.9716,-0.9742,-0.976,-0.9771,-0.9798,-0.9838,-0.9862,-0.991,-0.9949,-0.9986,-1.0002,-0.9999,-0.9999,-1.0009,-1.0009,-1.0004,-1.0008,-0.9902,-0.9997,-0.9996,-0.9995,-0.9995,-0.9995,-0.9649,-0.9677,-0.9703,-0.9739,-0.9759,-0.9784,-0.9813,-0.9827,-0.986,-0.9899,-0.9901,-0.9945,-0.9972,-1.0021,-1.004,-1.0074,-1.0064,-1.0079,-1.0082,-1.0086,-1.0089,-0.9997,-1.0081,-1.0081,-1.0081,-1.0081,-1.0081,0,-0.9729,-0.9745,-0.9778,-0.9814,-0.9843,-0.9835,-0.9864,-0.9889,-0.9926,-0.9952,-0.9982,-1.0028,-1.0066,-1.0086,-1.0124,-1.0148,-1.0147,-1.0158,-1.0156,-1.0161,-1.0095,-1.0083,-1.0158,-1.0158,-1.0158,-1.0158,-1.0158,-1.0158,-0.9774,-0.9822,-0.9829,-0.9887,-0.9903,-0.9945,-0.9962,-0.9985,-1.0006,-1.0057,-1.0088,-1.01,-1.0124,-1.0164,-1.0198,-1.0203,-1.0218,-1.023,-1.0234,-1.0173,-1.0165,-1.0158,-1.0146,-1.0233,-1.0233,-1.0296,-1.0297,-1.0297]},{"header":{"parameterUnit":"m.s-1","parameterCategory":1,"la1":30.2991,"la2":30.254,"lo1":-89.0895,"lo2":-89.0444,"dy":0.0017,"dx":0.0017,"nx":28,"ny":28,"refTime":"2025-06-23T03:00:00:Z","depth":0,"parameterNumber":3,"parameterNumberName":"V-component_of_WINDS"},"data":[0,0,0,0,0,0,0,0,0,0,0,0,0,0,0,0,0,0,0,0,0,0,0,0,0,0,0,0,0,0,0,0,0,0,0,0,0,0,0,0,0,0,0,0,0,0,0,0,0,0,0,0,0,0,0,0,0,0,-0.8415,-0.8415,0,-0.8453,-0.8453,-0.8454,-0.8492,-0.8492,-0.8493,-0.8493,-0.8533,-0.8533,-0.8534,0,0,0,0,0,0,0,0,0,0,0,0,0,-0.8376,-0.8376,-0.8415,-0.8415,-0.8416,-0.8453,-0.8453,-0.8454,-0.8492,-0.8492,-0.8493,-0.8493,-0.8533,-0.8533,-0.8534,0,0,0,0,0,0,0,0,0,0,0,0,0,-0.8401,-0.8376,-0.8415,-0.8439,-0.8441,-0.8453,-0.8453,-0.8454,-0.8491,-0.8492,-0.8493,-0.8494,-0.8532,-0.8533,-0.8534,-0.8524,0,0,-0.8537,-0.8537,0,0,0,0,0,0,0,0,-0.84,-0.8402,-0.8435,-0.8437,-0.844,-0.8468,-0.8454,-0.8478,-0.8491,-0.8472,-0.8493,-0.8494,-0.8511,-0.8513,-0.8519,-0.8526,-0.8528,-0.8537,-0.8537,-0.8538,-0.8538,0,0,0,0,0,0,0,-0.8398,-0.8401,-0.843,-0.8435,-0.8439,-0.8448,-0.8453,-0.8459,-0.8487,-0.8474,-0.8477,-0.8481,-0.8512,-0.8518,-0.852,-0.8529,-0.8537,-0.8538,-0.8538,-0.8539,-0.853,-0.853,0,0,0,0,0,0,-0.8392,-0.8399,-0.8429,-0.8431,-0.8421,-0.8448,-0.8453,-0.8458,-0.8487,-0.8492,-0.848,-0.8483,-0.8516,-0.8519,-0.8522,-0.8512,-0.8538,-0.8539,-0.8539,-0.8531,-0.853,-0.853,0,0,0,0,0,0,-0.8391,-0.8394,-0.8427,-0.8416,-0.8421,-0.8448,-0.8454,-0.8459,-0.8465,-0.8492,-0.8497,-0.8481,-0.8517,-0.852,-0.8524,-0.8514,-0.8539,-0.854,-0.8532,-0.8531,-0.853,-0.8493,0,0,0,0,0,0,-0.839,-0.8394,-0.839,-0.8416,-0.8421,-0.8428,-0.8453,-0.8459,-0.8466,-0.8469,-0.8494,-0.8498,-0.8518,-0.8522,-0.8524,-0.8516,-0.854,-0.8533,-0.8532,-0.853,-0.8495,-0.8491,-0.8487,0,0,0,0,0,-0.8388,-0.8378,-0.839,-0.8393,-0.8417,-0.8427,-0.843,-0.8453,-0.8465,-0.8462,-0.8479,-0.8497,-0.8515,-0.8522,-0.8525,-0.8516,-0.8534,-0.8532,-0.853,-0.8497,-0.8492,-0.8487,0,0,0,0,0,0,-0.8351,-0.8382,-0.8395,-0.8393,-0.8407,-0.8433,-0.843,-0.8446,-0.8458,-0.846,-0.8488,-0.8493,-0.8493,-0.8505,-0.8513,-0.8509,-0.8527,-0.8526,-0.8501,-0.8496,-0.8492,-0.8488,-0.8541,0,0,0,0,0,-0.8342,-0.8348,-0.8375,-0.837,-0.8377,-0.8402,-0.8407,-0.8423,-0.8439,-0.8445,-0.8463,-0.8478,-0.8487,-0.8492,-0.8502,-0.8498,-0.8503,-0.8493,-0.8489,-0.8486,-0.8484,-0.8483,-0.8479,-0.8524,-0.8524,-0.8524,0,0,-0.8325,-0.8343,-0.8344,-0.8363,-0.8376,-0.8381,-0.8407,-0.8411,-0.8415,-0.8446,-0.845,-0.8464,-0.8482,-0.8481,-0.8482,-0.8492,-0.8473,-0.8484,-0.8481,-0.8481,-0.8481,-0.8476,-0.8472,-0.8523,-0.8523,-0.8523,0,0,-0.8295,-0.8309,-0.8307,-0.8319,-0.8339,-0.8356,-0.8355,-0.8379,-0.8389,-0.8394,-0.8417,-0.8423,-0.8438,-0.845,-0.8458,-0.8434,-0.8451,-0.8437,-0.8415,-0.8413,-0.841,-0.8407,-0.8398,-0.8394,-0.8435,-0.8435,-0.8435,0,-0.8271,-0.8279,-0.8304,-0.8306,-0.8314,-0.8343,-0.8341,-0.8352,-0.8373,-0.8378,-0.8389,-0.8408,-0.8423,-0.8425,-0.8419,-0.8425,-0.8426,-0.8433,-0.8408,-0.8405,-0.8403,-0.8395,-0.8391,-0.8433,-0.8433,-0.8434,-0.8434,0,-0.8248,-0.8253,-0.8249,-0.8269,-0.8276,-0.8277,-0.8302,-0.8307,-0.8322,-0.8338,-0.8343,-0.8362,-0.8375,-0.8378,-0.8393,-0.8382,-0.8388,-0.8403,-0.8421,-0.8396,-0.8389,-0.8386,-0.843,-0.8431,-0.8432,-0.8432,0,0,-0.8194,-0.8228,-0.8226,-0.8236,-0.826,-0.8264,-0.8267,-0.828,-0.8283,-0.8298,-0.83,-0.8312,-0.8327,-0.8336,-0.8354,-0.8352,-0.8331,-0.8368,-0.8369,-0.836,-0.8321,-0.8308,-0.8304,-0.8344,-0.8343,-0.8343,-0.8319,0,-0.8168,-0.8173,-0.8195,-0.8193,-0.8199,-0.8227,-0.8229,-0.8244,-0.8259,-0.8266,-0.8284,-0.8292,-0.831,-0.8316,-0.8316,-0.8334,-0.8324,-0.8336,-0.8346,-0.8346,-0.8339,-0.83,-0.8287,-0.8263,-0.8316,-0.8316,-0.8315,0,-0.8138,-0.815,-0.8148,-0.8172,-0.8175,-0.8176,-0.8191,-0.8198,-0.8216,-0.8227,-0.8237,-0.8257,-0.8261,-0.8279,-0.8285,-0.8293,-0.8299,-0.8308,-0.8308,-0.8309,-0.8328,-0.8299,-0.8257,-0.8252,-0.8311,-0.8311,-0.8312,0,-0.8098,-0.8114,-0.8115,-0.8123,-0.8151,-0.8151,-0.8163,-0.8182,-0.8188,-0.8202,-0.8206,-0.822,-0.8227,-0.8237,-0.826,-0.8271,-0.8263,-0.8283,-0.8273,-0.8272,-0.8269,-0.8268,-0.8225,-0.8274,-0.8274,-0.8274,-0.8274,0,-0.8065,-0.8063,-0.8098,-0.8098,-0.8097,-0.8124,-0.8122,-0.8136,-0.8153,-0.8157,-0.8183,-0.8186,-0.8217,-0.8224,-0.8242,-0.8244,-0.8247,-0.8257,-0.8261,-0.8254,-0.8252,-0.8257,-0.8259,-0.8273,-0.8273,-0.8273,-0.8274,0,-0.802,-0.8043,-0.8046,-0.8073,-0.808,-0.8077,-0.8101,-0.8103,-0.812,-0.8125,-0.8128,-0.8155,-0.8165,-0.8189,-0.8205,-0.8218,-0.8214,-0.8224,-0.8208,-0.8211,-0.8199,-0.8199,-0.8156,-0.8151,-0.8203,-0.8203,-0.8203,0,-0.7997,-0.7996,-0.8023,-0.8028,-0.8038,-0.8045,-0.8053,-0.8079,-0.8086,-0.8107,-0.8106,-0.8118,-0.8129,-0.8143,-0.8164,-0.8177,-0.8186,-0.8171,-0.8188,-0.8181,-0.8185,-0.8185,-0.8184,-0.8166,-0.8165,-0.8165,-0.8164,0,-0.7954,-0.7966,-0.7975,-0.7988,-0.7996,-0.8008,-0.8022,-0.8024,-0.8054,-0.806,-0.807,-0.8079,-0.8096,-0.8107,-0.8123,-0.8136,-0.8155,-0.8159,-0.8157,-0.8148,-0.8139,-0.8143,-0.8196,-0.8159,-0.816,-0.816,-0.816,-0.8161,-0.7919,-0.7919,-0.7938,-0.7948,-0.7961,-0.7973,-0.7976,-0.7994,-0.8003,-0.8018,-0.8034,-0.8042,-0.8061,-0.8085,-0.8096,-0.8104,-0.8113,-0.8111,-0.811,-0.8109,-0.8105,-0.8139,-0.8107,-0.8107,-0.8107,-0.8107,-0.8107,0,-0.7877,-0.789,-0.7899,-0.7917,-0.7925,-0.7942,-0.7958,-0.7963,-0.7971,-0.7986,-0.7997,-0.8009,-0.802,-0.8043,-0.8056,-0.8058,-0.8067,-0.806,-0.806,-0.8062,-0.8096,-0.8096,-0.8052,-0.8052,-0.8052,-0.8052,-0.8052,-0.8053,-0.7855,-0.7857,-0.7871,-0.7879,-0.7894,-0.7902,-0.7909,-0.7921,-0.7933,-0.7945,-0.7955,-0.797,-0.7988,-0.8004,-0.8015,-0.8022,-0.8025,-0.8015,-0.8024,-0.8055,-0.806,-0.8065,-0.8065,-0.8016,-0.8016,-0.799,-0.799,-0.799]}]]